Über Starlink 3004
Group: 3 satellites
Beschreibung wird geladen...
Live-Position
3D-Globus wird geladen...
Nächste Überflüge
Höhenverlauf
Altitude vs Time
uPlot chart will show altitude changes over time
Zweizeiliger Elementsatz
1 48880U 21059B 25260.92593631 .00000849 00000-0 70663-4 0 9995
2 48880 97.6610 24.8902 0000817 194.4592 165.6609 15.01261018232885
Epoch: 17. Sept. 2025 •
Age: 14 hours
Aktueller Status
Höhe 579.2 km
Geschwindigkeit 7.57 km/s
Subsatellitenpunkt -41.20°S,
152°W
Startdatum 30. Juni 2021
Alter 4.2 years
Typ internet
Technische Details
Klassifizierung Payload
Masse 260.00 kg
Trockenmasse 248.00 kg
Gesamtmasse 260.00 kg
Länge 0.20 m
Durchmesser 2.80 m
Spannweite 9.00 m
Form Box + pan
Hersteller SPXS
Bus-Typ Starlink
Phasenstatus In Orbit
Besitzer/Staat SPXS/US
Große Konstellationen
Loading constellations...